Weather History for KCMA - September, 2012

Change the Weather History Date:

Monday, September 10, 2012

  Actual Average Record
Temperature  
Mean Temperature 72 °F 68 °F  
Max Temperature 79 °F 77 °F 91 °F (1984)
Min Temperature 64 °F 58 °F 48 °F (1961)
Degree Days  
Heating Degree Days 0 0  
Month to date heating degree days 1 0  
Since 1 July heating degree days 34 15  
Cooling Degree Days 7 3  
Month to date cooling degree days 38 30  
Year to date cooling degree days 213 242  
Growing Degree Days 22 (Base 50)    
Moisture  
Dew Point 61 °F    
Average Humidity 73    
Maximum Humidity 87    
Minimum Humidity 58    
Precipitation  
Precipitation 0.00 in 0.00 in 0.22 in (1976)
Month to date precipitation 0.01 0.02  
Year to date precipitation 5.72 11.06  
Since 1 July precipitation 0.04 0.08  
Sea Level Pressure  
Sea Level Pressure 29.89 in    
Wind  
Wind Speed 4 mph (West)    
Max Wind Speed 14 mph    
Max Gust Speed 17 mph    
Visibility 10 miles    
Events      
T = Trace of Precipitation, MM = Missing Value Source: NWS Daily Summary

Daily Weather History Graph

Daily Weather History Graph

Search for Another Location

Airport or City:

Trip Planner

Search our weather history database for the weather conditions in past years. The results will help you decide how hot, cold, wet, or windy it might be!

Date:

Astronomy

Sep. 10, 2012 Rise Set
Actual Time 6:36 AM PDT 7:09 PM PDT
Civil Twilight 6:11 AM PDT 7:34 PM PDT
Nautical Twilight 5:41 AM PDT 8:04 PM PDT
Astronomical Twilight 5:11 AM PDT 8:34 PM PDT
Moon 1:13 AM PDT (9/10) 3:32 PM PDT (9/10)
Length of Visible Light 13h 23m
Length of Day
12h 32m
Waning Crescent, 29% of the Moon is Illuminated
Sep 10
Waning Crescent
Sep 15
New
Sep 22
First Quarter
Sep 29
Full
Oct 8
Last Quarter

Hourly Weather History & Observations

Time (PDT) Temp. Dew Point Humidity Pressure Visibility Wind Dir Wind Speed Gust Speed Precip Events Conditions
12:55 AM 68.0 °F 60.1 °F 76% 29.92 in 10.0 mi North 3.5 mph - N/A   Clear
1:55 AM 68.0 °F 61.0 °F 78% 29.91 in 10.0 mi NW 5.8 mph - N/A   Clear
2:55 AM 66.0 °F 60.1 °F 81% 29.88 in 10.0 mi West 3.5 mph - N/A   Clear
3:55 AM 64.9 °F 60.1 °F 84% 29.86 in 10.0 mi Calm Calm - N/A   Clear
4:55 AM 66.0 °F 60.1 °F 81% 29.86 in 10.0 mi Calm Calm - N/A   Clear
5:55 AM 64.9 °F 59.0 °F 81% 29.87 in 10.0 mi Calm Calm - N/A   Clear
6:55 AM 66.0 °F 60.1 °F 81% 29.90 in 8.0 mi Calm Calm - N/A   Clear
7:55 AM 66.9 °F 61.0 °F 81% 29.91 in 8.0 mi Calm Calm - N/A   Clear
8:55 AM 69.1 °F 62.1 °F 78% 29.92 in 8.0 mi Calm Calm - N/A   Clear
9:55 AM 73.0 °F 63.0 °F 71% 29.93 in 9.0 mi Calm Calm - N/A   Clear
10:55 AM 77.0 °F 63.0 °F 62% 29.91 in 10.0 mi SSW 4.6 mph - N/A   Clear
11:55 AM 79.0 °F 63.0 °F 58% 29.91 in 10.0 mi West 11.5 mph - N/A   Clear
12:55 PM 79.0 °F 63.0 °F 58% 29.90 in 10.0 mi West 10.4 mph - N/A   Clear
1:55 PM 78.1 °F 62.1 °F 58% 29.90 in 10.0 mi WSW 11.5 mph - N/A   Clear
2:55 PM 77.0 °F 62.1 °F 60% 29.89 in 10.0 mi West 9.2 mph - N/A   Clear
3:55 PM 75.9 °F 62.1 °F 62% 29.88 in 10.0 mi West 8.1 mph - N/A   Clear
4:55 PM 73.9 °F 61.0 °F 64% 29.87 in 10.0 mi WSW 8.1 mph - N/A   Clear
5:55 PM 73.0 °F 61.0 °F 66% 29.86 in 10.0 mi WSW 8.1 mph - N/A   Clear
6:55 PM 69.1 °F 59.0 °F 70% 29.86 in 10.0 mi WSW 5.8 mph - N/A   Clear
7:55 PM 66.9 °F 59.0 °F 76% 29.87 in 10.0 mi WSW 4.6 mph - N/A   Clear
8:55 PM 66.0 °F 60.1 °F 81% 29.88 in 10.0 mi West 4.6 mph - N/A   Clear
9:55 PM 66.0 °F 61.0 °F 84% 29.90 in 9.0 mi WNW 3.5 mph - N/A   Clear
10:55 PM 64.9 °F 61.0 °F 87% 29.90 in 10.0 mi Calm Calm - N/A   Clear
11:55 PM 66.0 °F 60.1 °F 81% 29.90 in 10.0 mi Calm Calm - N/A   Clear